Beckley, WV

11:58 PM EDT on April 25, 2018 (GMT -0400)
Raleigh County Memorial

Weather History for KBKW - April, 2014

Change the Weather History Date:

Monday, April 14, 2014

  Actual Average Record
Temperature  
Mean Temperature 65 °F 52 °F  
Max Temperature 70 °F 63 °F 83 °F (2018)
Min Temperature 59 °F 41 °F 11 °F (1940)
Degree Days  
Heating Degree Days 0 13  
Month to date heating degree days 132 217  
Since 1 July heating degree days 5158 4930  
Cooling Degree Days 0 0  
Month to date cooling degree days 5 0  
Year to date cooling degree days 5 1  
Growing Degree Days 16 (Base 50)    
Moisture  
Dew Point 50 °F    
Average Humidity 62    
Maximum Humidity 78    
Minimum Humidity 45    
Precipitation  
Precipitation 0.01 in 0.11 in 1.88 in (2015)
Month to date precipitation 1.36 1.51  
Year to date precipitation 8.93 10.65  
Snow  
Snow 0.00 in 0.10 in 2.50 in (1962)
Month to date snowfall 0.0 2.2  
Since 1 September snowfall 75.7 61.2  
Snow Depth 0.00 in    
Sea Level Pressure  
Sea Level Pressure 29.82 in    
Wind  
Wind Speed 12 mph (South)    
Max Wind Speed 21 mph    
Max Gust Speed 30 mph    
Visibility 10 miles    
Events Rain    
T = Trace of Precipitation, MM = Missing Value Source: NWS Daily Summary

Daily Weather History Graph

Daily Weather History Graph

Search for Another Location

Airport or City:

Astronomy

Apr. 14, 2014 Rise Set
Actual Time 6:50 AM EDT 7:59 PM EDT
Civil Twilight 6:23 AM EDT 8:26 PM EDT
Nautical Twilight 5:51 AM EDT 8:58 PM EDT
Astronomical Twilight 5:18 AM EDT 9:32 PM EDT
Moon 7:36 PM EDT (4/14) 6:21 AM EDT (4/14)
Length of Visible Light 14h 02m
Length of Day
13h 08m
Full, 100% of the Moon is Illuminated
Apr 14
Full
Apr 15
Full
Apr 22
Last Quarter
Apr 29
New
May 6
First Quarter

Hourly Weather History & Observations

Time (EDT) Temp. Dew Point Humidity Pressure Visibility Wind Dir Wind Speed Gust Speed Precip Events Conditions
12:51 AM 66.0 °F 48.0 °F 52% 29.90 in 10.0 mi South 10.4 mph - N/A   Clear
1:51 AM 64.4 °F 48.2 °F 56% 29.98 in 10.0 mi South 13.8 mph 21.9 mph N/A   Clear
2:51 AM 64.0 °F 48.9 °F 58% 29.85 in 10.0 mi South 11.5 mph 20.7 mph N/A   Clear
3:51 AM 64.0 °F 50.0 °F 60% 29.83 in 10.0 mi South 13.8 mph - N/A   Clear
4:51 AM 63.0 °F 50.0 °F 63% 29.81 in 10.0 mi SSE 12.7 mph 20.7 mph N/A   Clear
5:51 AM 63.0 °F 50.0 °F 63% 29.81 in 10.0 mi South 15.0 mph 20.7 mph N/A   Clear
6:51 AM 63.0 °F 48.9 °F 60% 29.83 in 10.0 mi South 11.5 mph 21.9 mph N/A   Clear
7:51 AM 62.1 °F 48.9 °F 62% 29.86 in 10.0 mi South 8.1 mph - N/A   Clear
8:51 AM 63.0 °F 48.9 °F 60% 29.85 in 10.0 mi SSE 15.0 mph - N/A   Clear
9:51 AM 64.0 °F 48.9 °F 58% 29.84 in 10.0 mi South 11.5 mph 19.6 mph N/A   Clear
10:51 AM 64.4 °F 48.2 °F 56% 29.94 in 10.0 mi South 16.1 mph 25.3 mph N/A   Clear
11:51 AM 69.1 °F 48.0 °F 47% 29.85 in 10.0 mi South 16.1 mph 26.5 mph N/A   Clear
12:51 PM 68.0 °F 46.9 °F 47% 29.84 in 10.0 mi SSW 17.3 mph 21.9 mph N/A   Mostly Cloudy
1:51 PM 69.8 °F 48.2 °F 46% 29.90 in 10.0 mi SSW 15.0 mph 21.9 mph N/A   Scattered Clouds
2:51 PM 68.0 °F 48.9 °F 50% 29.80 in 10.0 mi SSE 9.2 mph - N/A   Overcast
3:51 PM 64.9 °F 51.1 °F 61% 29.81 in 8.0 mi South 13.8 mph 18.4 mph 0.00 in Rain Light Rain
4:51 PM 64.0 °F 52.0 °F 65% 29.80 in 10.0 mi SSW 11.5 mph 18.4 mph 0.01 in Rain Light Rain
5:51 PM 64.9 °F 53.1 °F 65% 29.77 in 10.0 mi South 6.9 mph - 0.00 in   Overcast
6:51 PM 64.9 °F 50.0 °F 58% 29.76 in 10.0 mi South 6.9 mph - N/A   Mostly Cloudy
7:51 PM 63.0 °F 52.0 °F 67% 29.75 in 10.0 mi South 9.2 mph - N/A   Overcast
8:51 PM 62.1 °F 52.0 °F 70% 29.74 in 10.0 mi South 11.5 mph 18.4 mph N/A   Partly Cloudy
9:51 PM 62.1 °F 52.0 °F 70% 29.75 in 10.0 mi South 8.1 mph - N/A   Overcast
10:51 PM 62.1 °F 52.0 °F 70% 29.73 in 10.0 mi South 10.4 mph - N/A   Overcast
11:51 PM 60.1 °F 53.1 °F 78% 29.70 in 10.0 mi SE 9.2 mph - N/A   Clear